[[{"header":{"parameterUnit":"m.s-1","parameterCategory":1,"la1":30.2991,"la2":30.254,"lo1":-89.0895,"lo2":-89.0444,"dy":0.0017,"dx":0.0017,"nx":28,"ny":28,"refTime":"2025-01-02T03:00:00:Z","depth":0,"parameterNumber":2,"parameterNumberName":"U-component_of_WINDS"},"data":[0,0,0,0,0,0,0,0,0,0,0,0,0,0,0,0,0,0,0,0,0,0,0,0,0,0,0,0,0,0,0,0,0,0,0,0,0,0,0,0,0,0,0,0,0,0,0,0,0,0,0,0,0,0,0,0,0,0,-4.2465,-4.2465,0,-4.2512,-4.2513,-4.2513,-4.2404,-4.24,-4.2397,-4.2394,-4.2444,-4.2449,-4.2453,0,0,0,0,0,0,0,0,0,0,0,0,0,-4.228,-4.2284,-4.2465,-4.2465,-4.2466,-4.2512,-4.2513,-4.2514,-4.2405,-4.24,-4.2396,-4.2392,-4.2443,-4.2448,-4.2454,0,0,0,0,0,0,0,0,0,0,0,0,0,-4.2347,-4.2285,-4.2465,-4.2417,-4.2413,-4.2512,-4.2513,-4.2514,-4.2405,-4.24,-4.2395,-4.239,-4.2441,-4.2448,-4.2455,-4.2602,0,0,-4.2476,-4.2479,0,0,0,0,0,0,0,0,-4.2344,-4.2354,-4.2423,-4.242,-4.2416,-4.2447,-4.2466,-4.2544,-4.2407,-4.2409,-4.2394,-4.2387,-4.245,-4.2455,-4.2476,-4.2605,-4.2607,-4.2476,-4.248,-4.2483,-4.2485,0,0,0,0,0,0,0,-4.2339,-4.2352,-4.2483,-4.2425,-4.242,-4.2394,-4.2397,-4.248,-4.2458,-4.2408,-4.24,-4.2407,-4.2447,-4.247,-4.2476,-4.2608,-4.2476,-4.2482,-4.2487,-4.2489,-4.286,-4.2866,0,0,0,0,0,0,-4.234,-4.2349,-4.2482,-4.2485,-4.2366,-4.2401,-4.2405,-4.2442,-4.2457,-4.2454,-4.2412,-4.2402,-4.246,-4.2468,-4.2478,-4.2652,-4.2483,-4.249,-4.2494,-4.2855,-4.2862,-4.2868,0,0,0,0,0,0,-4.2337,-4.2353,-4.248,-4.2415,-4.2429,-4.241,-4.2452,-4.2446,-4.2469,-4.2459,-4.2455,-4.2439,-4.2456,-4.2468,-4.2572,-4.2652,-4.2493,-4.2499,-4.2848,-4.2857,-4.2865,-4.3002,0,0,0,0,0,0,-4.2332,-4.2353,-4.2409,-4.2417,-4.2433,-4.2574,-4.2457,-4.2451,-4.2481,-4.2469,-4.2484,-4.2482,-4.2453,-4.2562,-4.2579,-4.2659,-4.2505,-4.2841,-4.2852,-4.2862,-4.299,-4.3014,-4.3034,0,0,0,0,0,-4.2326,-4.2446,-4.2412,-4.2429,-4.2502,-4.2579,-4.2588,-4.2552,-4.2488,-4.2544,-4.2538,-4.2481,-4.2641,-4.2574,-4.2592,-4.2675,-4.2835,-4.2849,-4.2861,-4.298,-4.3009,-4.3034,0,0,0,0,0,0,-4.2448,-4.2446,-4.2409,-4.2534,-4.2558,-4.256,-4.263,-4.2584,-4.2626,-4.2613,-4.2568,-4.2572,-4.2685,-4.269,-4.2616,-4.2819,-4.2727,-4.2744,-4.2811,-4.2839,-4.2861,-4.2858,-4.251,0,0,0,0,0,-4.249,-4.2552,-4.2546,-4.2658,-4.2671,-4.2649,-4.2681,-4.2651,-4.2674,-4.2683,-4.2684,-4.2709,-4.2764,-4.2802,-4.2852,-4.299,-4.2992,-4.3056,-4.3078,-4.3096,-4.3112,-4.3185,-4.3214,-4.291,-4.291,-4.2909,0,0,-4.2576,-4.2583,-4.2625,-4.2683,-4.2697,-4.2763,-4.2658,-4.2732,-4.278,-4.2694,-4.2793,-4.2795,-4.2819,-4.2941,-4.2994,-4.2948,-4.3196,-4.3113,-4.3127,-4.3133,-4.3201,-4.323,-4.3256,-4.2919,-4.2917,-4.2916,0,0,-4.2768,-4.2779,-4.2873,-4.2889,-4.2912,-4.2896,-4.2919,-4.2929,-4.2927,-4.3024,-4.2961,-4.3018,-4.3115,-4.3134,-4.3157,-4.3356,-4.3306,-4.3374,-4.349,-4.3562,-4.3586,-4.3607,-4.3678,-4.3704,-4.3389,-4.3389,-4.3389,0,-4.2873,-4.2969,-4.2927,-4.3006,-4.3033,-4.2958,-4.3053,-4.3071,-4.311,-4.3131,-4.3078,-4.3198,-4.3208,-4.3334,-4.3382,-4.3403,-4.3428,-4.3372,-4.3586,-4.3606,-4.3625,-4.3693,-4.372,-4.3397,-4.3396,-4.3396,-4.3395,0,-4.3097,-4.3165,-4.3238,-4.3277,-4.3312,-4.3399,-4.3371,-4.3412,-4.3379,-4.3369,-4.347,-4.348,-4.3531,-4.3559,-4.3528,-4.368,-4.3651,-4.3593,-4.35,-4.3663,-4.3726,-4.3752,-4.3409,-4.3406,-4.3404,-4.3402,0,0,-4.3368,-4.3382,-4.341,-4.3426,-4.3446,-4.3497,-4.3581,-4.363,-4.3667,-4.3696,-4.3764,-4.3848,-4.3794,-4.382,-4.379,-4.3854,-4.4011,-4.3788,-4.3788,-4.3829,-4.418,-4.4224,-4.4254,-4.3977,-4.3982,-4.3986,-4.4178,0,-4.3558,-4.37,-4.3665,-4.3807,-4.3869,-4.3798,-4.387,-4.389,-4.3883,-4.3935,-4.3926,-4.3986,-4.3911,-4.3926,-4.3985,-4.3979,-4.4081,-4.3965,-4.4042,-4.4045,-4.4039,-4.4287,-4.4334,-4.4515,-4.4202,-4.4206,-4.4209,0,-4.3798,-4.3836,-4.3984,-4.3993,-4.4018,-4.4084,-4.4126,-4.4176,-4.4198,-4.4188,-4.4217,-4.4175,-4.4257,-4.4163,-4.4276,-4.4198,-4.4227,-4.423,-4.4236,-4.4242,-4.4138,-4.4301,-4.4571,-4.4599,-4.4247,-4.4244,-4.4242,0,-4.3982,-4.407,-4.4169,-4.4185,-4.4199,-4.4247,-4.4254,-4.427,-4.4302,-4.4339,-4.436,-4.4406,-4.4432,-4.447,-4.4441,-4.4375,-4.456,-4.4463,-4.4554,-4.4556,-4.4597,-4.4595,-4.4877,-4.4615,-4.4615,-4.4614,-4.4614,0,-4.4198,-4.4291,-4.4252,-4.4313,-4.4416,-4.4374,-4.4477,-4.4476,-4.4491,-4.4552,-4.4493,-4.4551,-4.451,-4.4564,-4.4543,-4.464,-4.4652,-4.4647,-4.464,-4.4653,-4.4654,-4.4672,-4.4659,-4.4622,-4.462,-4.4619,-4.4617,0,-4.4421,-4.4398,-4.4502,-4.4505,-4.4508,-4.4584,-4.4587,-4.4644,-4.4632,-4.4709,-4.4725,-4.4706,-4.4768,-4.4743,-4.4808,-4.4793,-4.4918,-4.4895,-4.4911,-4.4905,-4.4998,-4.499,-4.5302,-4.5341,-4.5054,-4.5057,-4.5059,0,-4.456,-4.463,-4.4641,-4.4677,-4.4689,-4.4748,-4.478,-4.4742,-4.4778,-4.4807,-4.4861,-4.4917,-4.496,-4.5061,-4.5054,-4.5103,-4.5081,-4.5187,-4.5088,-4.5098,-4.5083,-4.5079,-4.5086,-4.5207,-4.521,-4.5213,-4.5215,0,-4.4811,-4.4796,-4.4844,-4.4889,-4.4929,-4.4963,-4.4991,-4.5024,-4.4987,-4.503,-4.5092,-4.5125,-4.5191,-4.5248,-4.5292,-4.53,-4.5252,-4.5246,-4.527,-4.5284,-4.529,-4.5288,-4.4966,-4.5239,-4.5237,-4.5235,-4.5234,-4.5233,-4.4997,-4.5055,-4.5072,-4.5128,-4.5145,-4.5173,-4.5227,-4.5221,-4.5272,-4.5322,-4.5297,-4.5369,-4.5388,-4.5442,-4.5456,-4.5512,-4.5471,-4.5505,-4.5514,-4.5524,-4.5536,-4.5281,-4.552,-4.5519,-4.5519,-4.5518,-4.5518,0,-4.5245,-4.5252,-4.5303,-4.5345,-4.5389,-4.5339,-4.5367,-4.5408,-4.5472,-4.5493,-4.5536,-4.5607,-4.5662,-4.5659,-4.5709,-4.5754,-4.5734,-4.5769,-4.5765,-4.5768,-4.557,-4.5544,-4.5785,-4.5785,-4.5785,-4.5785,-4.5785,-4.5784,-4.5379,-4.5476,-4.5463,-4.5568,-4.5574,-4.5644,-4.5665,-4.569,-4.5707,-4.5789,-4.5833,-4.5831,-4.5843,-4.5893,-4.5941,-4.5939,-4.596,-4.6004,-4.5994,-4.5809,-4.5782,-4.5757,-4.5733,-4.6009,-4.6009,-4.6187,-4.6189,-4.619]},{"header":{"parameterUnit":"m.s-1","parameterCategory":1,"la1":30.2991,"la2":30.254,"lo1":-89.0895,"lo2":-89.0444,"dy":0.0017,"dx":0.0017,"nx":28,"ny":28,"refTime":"2025-01-02T03:00:00:Z","depth":0,"parameterNumber":3,"parameterNumberName":"V-component_of_WINDS"},"data":[0,0,0,0,0,0,0,0,0,0,0,0,0,0,0,0,0,0,0,0,0,0,0,0,0,0,0,0,0,0,0,0,0,0,0,0,0,0,0,0,0,0,0,0,0,0,0,0,0,0,0,0,0,0,0,0,0,0,-2.1876,-2.1876,0,-2.1868,-2.1868,-2.1868,-2.184,-2.184,-2.1839,-2.1838,-2.1829,-2.183,-2.183,0,0,0,0,0,0,0,0,0,0,0,0,0,-2.1865,-2.1865,-2.1876,-2.1876,-2.1876,-2.1868,-2.1868,-2.1868,-2.184,-2.184,-2.1839,-2.1838,-2.1829,-2.183,-2.183,0,0,0,0,0,0,0,0,0,0,0,0,0,-2.1865,-2.1865,-2.1876,-2.1861,-2.186,-2.1868,-2.1868,-2.1868,-2.1841,-2.184,-2.1839,-2.1838,-2.1829,-2.183,-2.183,-2.1852,0,0,-2.1832,-2.1832,0,0,0,0,0,0,0,0,-2.1865,-2.1865,-2.1864,-2.1862,-2.1861,-2.1854,-2.1861,-2.1863,-2.1841,-2.1848,-2.1838,-2.1837,-2.1838,-2.1838,-2.1839,-2.1852,-2.1851,-2.1832,-2.1832,-2.1832,-2.1832,0,0,0,0,0,0,0,-2.1865,-2.1865,-2.1873,-2.1864,-2.1862,-2.1854,-2.1853,-2.1861,-2.1849,-2.1847,-2.1845,-2.1845,-2.1837,-2.1838,-2.1838,-2.1851,-2.1832,-2.1832,-2.1833,-2.1833,-2.1879,-2.188,0,0,0,0,0,0,-2.1867,-2.1865,-2.1873,-2.1873,-2.1861,-2.1855,-2.1854,-2.1857,-2.1848,-2.1846,-2.1846,-2.1843,-2.1838,-2.1838,-2.1838,-2.1861,-2.1832,-2.1833,-2.1833,-2.1878,-2.188,-2.1881,0,0,0,0,0,0,-2.1867,-2.1868,-2.1874,-2.1869,-2.1869,-2.1856,-2.186,-2.1858,-2.1859,-2.1847,-2.1844,-2.1849,-2.1837,-2.1837,-2.1848,-2.1861,-2.1833,-2.1833,-2.1877,-2.1879,-2.188,-2.191,0,0,0,0,0,0,-2.1867,-2.1868,-2.1877,-2.1869,-2.1869,-2.1885,-2.1861,-2.1858,-2.186,-2.1857,-2.1849,-2.1847,-2.1836,-2.1848,-2.1849,-2.1861,-2.1834,-2.1876,-2.1878,-2.188,-2.1908,-2.1912,-2.1916,0,0,0,0,0,-2.1866,-2.1886,-2.1878,-2.1879,-2.188,-2.1886,-2.1886,-2.1873,-2.1861,-2.1869,-2.1861,-2.1848,-2.1859,-2.1849,-2.185,-2.1863,-2.1875,-2.1878,-2.188,-2.1906,-2.1911,-2.1916,0,0,0,0,0,0,-2.1896,-2.1885,-2.1876,-2.1893,-2.1891,-2.1881,-2.1892,-2.188,-2.1881,-2.1878,-2.1862,-2.186,-2.1873,-2.1869,-2.1858,-2.1882,-2.1865,-2.1867,-2.1885,-2.189,-2.1894,-2.1894,-2.1834,0,0,0,0,0,-2.1905,-2.1911,-2.1901,-2.1918,-2.1917,-2.1904,-2.1907,-2.1897,-2.1893,-2.1892,-2.1885,-2.1882,-2.1885,-2.1887,-2.1889,-2.1907,-2.1904,-2.1916,-2.192,-2.1923,-2.1925,-2.1932,-2.1937,-2.1887,-2.1887,-2.1887,0,0,-2.1923,-2.1918,-2.1923,-2.1923,-2.192,-2.1926,-2.1904,-2.1912,-2.1915,-2.1893,-2.1903,-2.1898,-2.1893,-2.1907,-2.1913,-2.1904,-2.1938,-2.1926,-2.1929,-2.1929,-2.1935,-2.194,-2.1944,-2.1889,-2.1889,-2.1888,0,0,-2.1959,-2.1956,-2.1969,-2.1966,-2.1961,-2.1952,-2.1955,-2.1947,-2.1943,-2.1952,-2.1935,-2.1939,-2.1945,-2.1941,-2.1941,-2.1973,-2.1959,-2.1974,-2.1995,-2.2002,-2.2006,-2.2009,-2.2019,-2.2023,-2.1976,-2.1976,-2.1976,0,-2.1982,-2.1991,-2.1977,-2.1985,-2.1985,-2.1965,-2.1976,-2.1974,-2.197,-2.197,-2.196,-2.1965,-2.1961,-2.1973,-2.1981,-2.1981,-2.1983,-2.1974,-2.2007,-2.201,-2.2013,-2.2022,-2.2026,-2.1978,-2.1977,-2.1977,-2.1977,0,-2.2018,-2.2024,-2.2035,-2.2031,-2.2032,-2.2043,-2.2029,-2.2032,-2.2021,-2.2013,-2.2022,-2.2016,-2.2015,-2.2017,-2.2008,-2.2028,-2.2022,-2.201,-2.1992,-2.2019,-2.2028,-2.2031,-2.198,-2.1979,-2.1979,-2.1979,0,0,-2.2073,-2.2061,-2.2065,-2.2062,-2.2054,-2.2058,-2.2067,-2.2066,-2.2068,-2.2065,-2.2071,-2.2075,-2.2063,-2.2062,-2.2051,-2.2058,-2.2081,-2.2044,-2.2044,-2.205,-2.2101,-2.2109,-2.2114,-2.2073,-2.2073,-2.2074,-2.2101,0,-2.2106,-2.212,-2.2107,-2.2123,-2.2127,-2.2107,-2.2114,-2.2109,-2.2102,-2.2104,-2.2095,-2.2098,-2.2082,-2.2081,-2.2087,-2.2077,-2.2091,-2.2075,-2.2076,-2.2077,-2.2077,-2.2119,-2.2128,-2.2154,-2.2104,-2.2105,-2.2105,0,-2.2146,-2.2145,-2.2162,-2.2151,-2.2152,-2.2159,-2.2156,-2.2159,-2.2152,-2.2146,-2.2144,-2.2131,-2.2137,-2.212,-2.2127,-2.2116,-2.2116,-2.2111,-2.2112,-2.2111,-2.2092,-2.2118,-2.2162,-2.2166,-2.211,-2.211,-2.211,0,-2.2183,-2.2186,-2.2195,-2.2194,-2.2182,-2.2187,-2.2182,-2.2175,-2.2175,-2.2172,-2.2171,-2.217,-2.2168,-2.2167,-2.2153,-2.2142,-2.2161,-2.2143,-2.2155,-2.2155,-2.216,-2.2159,-2.2204,-2.2161,-2.2161,-2.2161,-2.2161,0,-2.2221,-2.2231,-2.2211,-2.2217,-2.2227,-2.2212,-2.2222,-2.2215,-2.2209,-2.2212,-2.2195,-2.2198,-2.218,-2.2181,-2.217,-2.2177,-2.2176,-2.2171,-2.2167,-2.2172,-2.2172,-2.2171,-2.2168,-2.2162,-2.2162,-2.2161,-2.2161,0,-2.2263,-2.2251,-2.226,-2.2247,-2.2244,-2.2253,-2.2242,-2.2246,-2.2237,-2.2241,-2.2241,-2.2226,-2.2226,-2.2212,-2.2209,-2.2202,-2.2213,-2.2207,-2.2215,-2.2212,-2.2224,-2.2223,-2.2268,-2.2273,-2.2229,-2.2229,-2.2229,0,-2.2288,-2.2295,-2.2283,-2.2284,-2.228,-2.2282,-2.2281,-2.2265,-2.2265,-2.2258,-2.2262,-2.2261,-2.2259,-2.2259,-2.2248,-2.2245,-2.2238,-2.2254,-2.2238,-2.2241,-2.2237,-2.2236,-2.2236,-2.2258,-2.2258,-2.2259,-2.2259,0,-2.2332,-2.2324,-2.2324,-2.2322,-2.2321,-2.2318,-2.2314,-2.2316,-2.2298,-2.2298,-2.2298,-2.2296,-2.2293,-2.2291,-2.2286,-2.228,-2.2266,-2.2265,-2.2267,-2.2271,-2.2275,-2.2271,-2.2223,-2.2263,-2.2263,-2.2263,-2.2263,-2.2262,-2.2365,-2.237,-2.2362,-2.2362,-2.2357,-2.2353,-2.2355,-2.2346,-2.2345,-2.2341,-2.2332,-2.2333,-2.2324,-2.2316,-2.2311,-2.2311,-2.2302,-2.2306,-2.2307,-2.2308,-2.2309,-2.2275,-2.231,-2.231,-2.2309,-2.2309,-2.2309,0,-2.2407,-2.24,-2.24,-2.2394,-2.2394,-2.2381,-2.2375,-2.2375,-2.2376,-2.237,-2.2368,-2.2366,-2.2364,-2.2352,-2.2348,-2.235,-2.2343,-2.2349,-2.2348,-2.2347,-2.2318,-2.2316,-2.2354,-2.2354,-2.2354,-2.2354,-2.2354,-2.2354,-2.2428,-2.2435,-2.2427,-2.243,-2.2423,-2.2424,-2.2422,-2.2417,-2.2412,-2.2411,-2.2409,-2.2401,-2.2392,-2.2387,-2.2383,-2.238,-2.2378,-2.2386,-2.2381,-2.2354,-2.2349,-2.2345,-2.2343,-2.2387,-2.2387,-2.2409,-2.241,-2.241]}]]